Flag for Estonia Weather past 2 weeks in Narva, Estonia

Now
35 °F

Rain showers. Overcast.


Feels Like: 29 °F
Forecast: 35 / 42 °F
Wind: 8 mph from South

Location: Narva

Current Time: Mar 30, 2015 at 2:28:33 AM

Latest Report: Mar 30, 2015 at 1:00 AM


Visibility: 9 mi

Pressure: 29.54 "Hg

Humidity: 79%

Dew point: 29 °F

Location of NarvaLocation

Historic Weather in Narva — Graph

°F

Narva temperature yesterday

Maximum temperature yesterday: 42 °F (at 6:00 PM)
Minimum temperature yesterday: 35 °F (at 4:00 AM)
Average temperature yesterday: 38 °F

Past Weeks' High & Low Weather Summary

 TemperatureHumidityPressure
High58 °F (Mar 18, 4:00 PM)99% (Mar 29, 5:00 AM)31.08 "Hg (Mar 29, 5:00 AM)
Low21 °F (Mar 22, 6:00 AM)16% (Mar 18, 4:00 PM)28.05 "Hg (Mar 17, 12:00 PM)
Average36 °F61%30.24 "Hg
* Reported Mar 14 10:00 PM — Mar 29 11:00 PM, Narva, Weather by CustomWeather, © 2015

Note: Actual official high and low records may vary slightly from our data, if they occured in-between our weather recording intervals... More about our weather records

Advertising

Narva weather history for previous 24 hours

 ConditionsComfort  
Time TempWeatherWind HumidityBarometerVisibility
11:00 PM
Sun, Mar 29
36 °FRain showers. Overcast.7 mph77%29.58 "Hg10 mi
10:00 PM37 °FLight rain. Overcast.8 mph73%29.60 "Hg9 mi
9:00 PM39 °FOvercast.10 mph65%29.62 "Hg11 mi
8:00 PM41 °FOvercast.8 mph56%29.61 "Hg12 mi
7:00 PM42 °FOvercast.6 mph59%29.63 "Hg12 mi
6:00 PM42 °FOvercast.5 mph61%29.66 "Hg11 mi
5:00 PM41 °FRain showers. Overcast.6 mph67%29.69 "Hg10 mi
4:00 PM38 °FRain showers. Overcast.3 mph85%29.73 "Hg9 mi
3:00 PM37 °FLight rain. Overcast.7 mph86%29.75 "Hg7 mi
2:00 PM38 °FOvercast.6 mph84%29.78 "Hg7 mi
1:00 PM38 °FDrizzle. Overcast.6 mph89%29.79 "Hg6 mi
12:00 PM39 °FFog.6 mph88%29.81 "Hg6 mi
11:00 AM40 °FFog.5 mph88%29.82 "Hg5 mi
10:00 AM39 °FLow clouds.5 mph93%29.84 "Hg4 mi
9:00 AM39 °FLow clouds.5 mph95%29.85 "Hg1 mi
8:00 AM37 °FLight rain. Low clouds.1 mph99%29.86 "Hg3 mi
7:00 AM36 °FLight rain. Low clouds.1 mph99%29.87 "Hg1 mi
5:00 AM35 °FLight rain. Low clouds.1 mph99%29.89 "Hg3 mi
4:00 AM35 °FRain. Low clouds.2 mph98%29.90 "Hg6 mi
2:00 AM36 °FRain. Low clouds.3 mph98%29.90 "Hg4 mi
Weather by CustomWeather, © 2015

See weather overviewHow to use our weather pages